Вернуться в каталог

STARLINK-2591

АктивенСвязьVLEO
NORAD 48361·PAYLOAD·🇺🇸 United States

Запущен May 4, 2021 с Cape Canaveral Space Force Station

Loading…

Ближайшие Пролёты (ближайшие 24 часа)

TLE

СвежийSource: CelesTrak SupGP

Эпоха: Sep 14, 2026, 21:25 UTC

1 48361C 21038J   26257.89284722 -.00004292  00000+0 -13808-3 0  2578
2 48361  53.1586 197.6354 0001721 106.3869 339.4851 15.31687267    11

Отслеживайте STARLINK-2591 в реальном времени с AllMySat

Download on the App Store